Terminal Aerodrome Forecast
Issued by NWS

Home | Current Version | Previous Version | Text Only | Print | Product List | Glossary On
Versions: 1 2 3 4 5 6 7 8 9 10 11 12 13 14
000
FTUS43 KFGF 060500
TAFTVF
TAF
KTVF 060522Z 0606/0706 14010KT P6SM SCT250
     FM061000 14011KT P6SM BKN020
     FM062300 14012KT P6SM -RA BKN035
      AMD LTD TO CLD VIS AND WIND=

USA.gov is the U.S. government's official web portal to all federal, state and local government web resources and services.